MyTimes logo

TIMES

Webb Imagery

10/02/2001
Channel Challenge
550m Swim / 2.0km Run - Local Residents

(Click on competitor name to view personalised results)

Name
Race #
Category
Time
(h:mm:ss)
Avg Speed
km/hr
OAll
Place
Cat
Place
HOLLINS Peter#185Local Senior Male0:12:52 11.9 11
YUSKO Daniel#528Local Junior Male0:13:50 11.1 21
FLEISNER Rob#514Local Male 40-490:13:50 11.1 31
CORBETT Jim#118Local Senior Male0:14:03 10.9 42
YUSKO Bill#526Local Male 40-490:14:13 10.8 52
DALLINGER Chris#218Local Senior Male0:14:25 10.6 63
HOGHTON Daniel#129Local Senior Male0:14:36 10.5 74
COOPER Brett#559Local Junior Male0:14:44 10.4 82
BUTTIFANTY David#190Local Senior Male0:14:56 10.2 95
MASON Nick#589Local Junior Male0:14:58 10.2 103
JUDD Gary#572Local Male 40-490:15:02 10.2 113
MOYLAN Nicholas#626Local Junior Male0:15:03 10.2 124
RUMFORD Peter#181Local Senior Male0:15:12 10.1 136
DUNN Ian#618Local Male 40-490:15:13 10.1 144
SPOTTISWOOD James#607Local Junior Male0:15:14 10 155
GRAHAME Sarah#433Local Junior Female0:15:16 10 161
ROLLAND Thierry#34Local Senior Male0:15:21 10 177
MARSHALL Luke#158Local Senior Male0:15:25 9.9 188
TREVENA Martin#81Local Senior Male0:15:32 9.8 199
HEWETT Noel#114Local Senior Male0:15:33 9.8 2010
GROSS Mark#120Local Senior Male0:15:47 9.7 2111
LUNN Daniel#212Local Senior Male0:15:49 9.7 2212
AVAGE Kelly#336Local Senior Female0:15:52 9.6 231
CARTER Dean#561Local Male 50+0:15:57 9.6 241
WILLIAMS Alastair#141Local Senior Male0:15:58 9.6 2513
HOSKING Scott#220Local Senior Male0:16:00 9.6 2614
FAIRTHORNE Mark#62Local Senior Male0:16:00 9.6 2715
QUILFORD Rees#130Local Senior Male0:16:06 9.5 2816
MASON John#588Local Male 40-490:16:17 9.4 295
AIKEN Brett#122Local Senior Male0:16:37 9.2 3017
MC HENRY Andrew#640Local Junior Male0:16:37 9.2 316
FISHER Kevin#89Local Senior Male0:16:43 9.2 3218
DAFF Geoff#568Local Male 40-490:16:52 9.1 336
EVANS Bree#360Local Junior Female0:16:58 9 342
WHITEHOUSE Richard#615Local Male 40-490:16:58 9 357
DOOM Kathy#350Local Senior Female0:16:59 9 362
HORNSBY Anthony#174Local Senior Male0:17:00 9 3719
MAIER David#127Local Senior Male0:17:03 9 3820
DALLINGER Brian#529Local Male 40-490:17:03 9 398
MILLER Todd#112Local Senior Male0:17:08 8.9 4021
KEADY Richard#570Local Male 50+0:17:12 8.9 412
LOWE Darren#137Local Senior Male0:17:13 8.9 4222
WILSON Sam#584Local Junior Male0:17:15 8.9 437
BURT Ainslee#417Local Junior Female0:17:16 8.9 443
BROWN Warwick#100Local Senior Male0:17:19 8.8 4523
TANCHEFF Brian#593Local Male 40-490:17:20 8.8 469
MANNING Simon#75Local Senior Male0:17:21 8.8 4724
BERESFORD Jason#87Local Senior Male0:17:21 8.8 4825
STOOPMAN Jo#344Local Senior Female0:17:22 8.8 493
JAMES Dylon#606Local Junior Male0:17:22 8.8 508
MACMILLAN Matthew#219Local Senior Male0:17:27 8.8 5126
TAYLOR Graham#521Local Male 40-490:17:28 8.8 5210
CAMERON Jane#381Local Female 40-490:17:32 8.7 531
EDEN Shea#113Local Senior Female0:17:34 8.7 544
ABRAHAMSON Gareth#168Local Senior Male0:17:37 8.7 5527
JAMIESON Mark#558Local Male 40-490:17:41 8.7 5611
VAN DIJK Robbie#581Local Male 40-490:17:51 8.6 5712
OLDEN Josh#128Local Senior Male0:17:53 8.6 5828
SUNDERLAND Peter#557Local Male 40-490:18:06 8.5 5913
BROWN Darren#90Local Senior Male0:18:07 8.4 6029
REASON Amber#436Local Senior Female0:18:10 8.4 615
MURDOCH Andrew#216Local Senior Male0:18:15 8.4 6230
YUSKO Imogne#330Local Junior Female0:18:21 8.3 634
JOHNSTON John#229Local Senior Male0:18:24 8.3 6431
SMITH Paul#533Local Male 40-490:18:30 8.3 6514
BARRY Lawri#443Local Senior Female0:18:31 8.3 666
BULL Deanne#445Local Senior Female0:18:33 8.2 677
CHASTON Peter#647Local Male 40-490:18:40 8.2 6815
MATTHEWS Robert#532Local Male 50+0:18:44 8.2 693
JOHNSTON Brian#645Local Male 40-490:18:48 8.1 7016
MARUM Ellyse#426Local Junior Female0:18:52 8.1 715
GLASSCOCK Ian#91Local Senior Male0:18:54 8.1 7232
DAWSON-GROVE Olivia#424Local Senior Female0:18:54 8.1 738
MANNING John#159Local Senior Male0:19:10 8 7433
BARRY Karina#446Local Senior Female0:19:12 8 759
BROWNS Daryl#19Local Senior Male0:19:14 8 7634
LINFORD Rob#602Local Junior Male0:19:20 7.9 779
FLEISNER Paul#549Local Male 50+0:19:35 7.8 784
DAVIE Richie#638Local Male 40-490:19:42 7.8 7917
PRICE Brodie#641Local Junior Male0:19:51 7.7 8010
ROOKS David#22Local Senior Male0:20:06 7.6 8135
COX Bill#574Local Male 40-490:20:08 7.6 8218
HUGHES Bronwyn#425Local Female 40-490:20:09 7.6 832
WALKER Chrisine#320Local Female 50+0:20:19 7.5 841
THURGOOD Neville#107Local Senior Male0:20:20 7.5 8536
TAYLOR Rick#579Local Male 40-490:20:31 7.5 8619
CARTER Sandra#432Local Junior Female0:20:32 7.5 876
WILSON Ian#585Local Male 40-490:20:37 7.4 8820
GEORGE Kelly#304Local Senior Female0:20:45 7.4 8910
VAN BREEMAN Deanne#398Local Senior Female0:20:47 7.4 9011
HYNDMAN Greg#586Local Male 40-490:20:47 7.4 9121
TAYLOR Sarah#382Local Senior Female0:20:49 7.3 9212
WHITEHOUSE Cara#428Local Junior Female0:20:52 7.3 937
PURVIS Daryl#643Local Male 40-490:21:01 7.3 9422
CUTHBERTSON Diddy#407Local Senior Male0:21:14 7.2 9537
HOPKINS Barry#555Local Male 40-490:21:17 7.2 9623
BARRETT Mark#587Local Male 40-490:21:22 7.2 9724
WILSON Noni#392Local Junior Female0:21:30 7.1 988
WEIR Warren#603Local Male 40-490:21:31 7.1 9925
PRENDERGAST Kevin#583Local Male 50+0:21:37 7.1 1005
TODD Alycia#430Local Senior Female0:21:42 7.1 10113
PLANT David#96Local Senior Male0:21:43 7 10238
DRENNAN Kelly#437Local Junior Female0:21:48 7 1039
FITZSIMONS Kathleen#447Local Senior Female0:21:53 7 10414
REES Karen#442Local Senior Female0:21:56 7 10515
HALL Kerri#363Local Junior Female0:21:58 7 10610
WAGLAND Wayne#213Local Senior Male0:22:07 6.9 10739
TSCHIDERER Melanie#347Local Senior Female0:22:15 6.9 10816
PARRY Ann-Marie#335Local Senior Female0:22:16 6.9 10917
KEWMING Robyn#415Local Male 40-490:22:27 6.8 11026
TODD Michelle#429Local Senior Female0:22:29 6.8 11118
VAN DIJK Karen#389Local Female 40-490:22:32 6.8 1123
GREENHAIGH Paul#63Local Senior Male0:23:22 6.5 11340
WEST Trevor#632Local Male 40-490:23:28 6.5 11427
MAKI Leela#383Local Female 40-490:23:37 6.5 1154
STEWART Jackie#327Local Senior Female0:23:45 6.4 11619
CAILE Nici#450Local Senior Female0:23:53 6.4 11720
PLANT Mark Victo#553Local Male 40-490:23:58 6.4 11828
BROWN Trudy#372Local Senior Female0:24:29 6.2 11921
HOLLINS Jennifer#406Local Senior Female0:24:37 6.2 12022
COOPER Ric#560Local Male 50+0:24:48 6.2 1216
REEK George#577Local Male 50+0:24:56 6.1 1227
ARMSTRONG Amanda#380Local Senior Female0:25:03 6.1 12323
COLEMAN Mark#649Local Male 40-490:25:09 6.1 12429
HORROCKS Mark#576Local Male 40-490:27:17 5.6 12530
CHURCHILL Danielle#449Local Senior Female0:27:38 5.5 12624
STEPHENS Wayne#554Local Male 50+0:27:53 5.5 1278
DAFF Jan#376Local Female 50+0:28:32 5.4 1282
PLANT Melissa Ja#375Local Senior Female0:28:33 5.4 12925
SAGE Albert#520Local Male 50+0:29:08 5.3 1309
CONNELL Glen#134Local Senior Male0:30:56 4.9 13141
CANE Michael#627Local Male 40-490:34:10 4.5 13231
ABRAHAMSON Marcus#206Local Senior Male0:35:42 4.3 13342